Terug naar catalogus

STARLINK-5445

ActiefCommunicatieVLEO
NORAD 54790·PAYLOAD·🇺🇸 United States

Gelanceerd Dec 17, 2022 vanaf Cape Canaveral Space Force Station

Loading…

Volgende Passages (komende 24 uur)

TLE

VersSource: CelesTrak SupGP

Epoch: Sep 15, 2026, 02:37 UTC

1 54790C 22175AJ  26258.10951389 -.00109620  00000+0 -32376-2 0  2581
2 54790  53.1579 244.9002 0001083  85.2189 301.9293 15.34456427    12

Volg STARLINK-5445 in realtime met AllMySat

Download on the App Store